Weather Service Report


650 
ASUS41 KGYX 282105
RWRGYX
WEATHER ROUNDUP FOR MAINE AND NEW HAMPSHIRE
NATIONAL WEATHER SERVICE GRAY ME
500 PM EDT MON JUL 28 2014

MEZ002-005-006-010-012-015-018-020-021-024-026-027-029-282200-
MAINE
  
CITY           SKY/WX    TMP DP  RH WIND       PRES   REMARKS
PORTLAND       MOSUNNY   73  67  81 S12G21    29.48F                  
SANFORD        MOSUNNY   79  66  65 S9G18     29.45F                  
BAR HARBOR     CLOUDY    70  70 100 SE13      29.57F                  
WISCASSET      MOSUNNY   73  66  78 S8        29.52F                  
ROCKLAND       PTSUNNY   66  64  94 SE8       29.52F                  
FRYEBURG       CLOUDY    73  70  90 E5        29.48F                  
LEWISTONAUBURN CLOUDY    70  66  88 SE6       29.50S                  
AUGUSTA        CLOUDY    69  68  96 S8        29.52F FOG              
WATERVILLE     CLOUDY    68  66  94 S6        29.48F                  
BANGOR         CLOUDY    69  66  90 SE10      29.56S                  
GREENVILLE       N/A     64  63  96 SE10G20   29.53F                  
MILLINOCKET    LGT RAIN  70  67  90 SE8       29.58F FOG              
HOULTON        CLOUDY    71  67  87 E8        29.59F                  
PRESQUE ISLE   CLOUDY    72  63  73 E8        29.62F                  
FRENCHVILLE    CLOUDY    67  63  87 E5        29.66F                  
CARIBOU        CLOUDY    71  66  84 E3        29.63F                  
$$

NHZ002-005-008-009-011-012-014-282200-
NEW HAMPSHIRE
  
CITY           SKY/WX    TMP DP  RH WIND       PRES   REMARKS
PORTSMOUTH     MOSUNNY   78  68  72 SE13      29.44F                  
ROCHESTER      MOSUNNY   79  68  69 S10G17    29.44F                  
NASHUA         MOSUNNY   81  70  69 CALM      29.44F                  
MANCHESTER     PTSUNNY   82  67  60 S10       29.42F                  
CONCORD        MOSUNNY   81  67  62 S14       29.44F                  
LACONIA          N/A     73  64  73 NE5       29.44F                  
PLYMOUTH       TSTM      67  65  91 S6G26     29.48R VSB 1            
BERLIN         LGT RAIN  68  65  90 CALM      29.50F                  
WHITEFIELD     PTSUNNY   71  66  84 CALM      29.50R                  
JAFFREY        TSTM      67  60  78 VRB3G20   29.48S                  
LEBANON        LGT RAIN  68  66  93 E3        29.48S                  
MT WASHINGTON  FOG       52  52 100 SW23        N/A  VSB 1/16         
$$

VTZ005-007-008-282200-
VERMONT
  
CITY           SKY/WX    TMP DP  RH WIND       PRES   REMARKS
ST JOHNSBURY     N/A     69  63  81 MISG      29.47F                  
MONTPELIER     CLOUDY    68  63  84 N5        29.54F                  
BURLINGTON     LGT RAIN  65  63  93 N15       29.51R                  
$$

MAZ007-012-024-CTZ003-RIZ002-NYZ038-NYZ072-282200-
SOUTHERN NEW ENGLAND AND NY
  
CITY           SKY/WX    TMP DP  RH WIND       PRES   REMARKS
BOSTON         MOSUNNY   82  68  62 S15       29.44F                  
WORCESTER      TSTM      70  64  81 W20G33    29.49S                  
NANTUCKET      CLOUDY    71  68  90 S14       29.55S FOG              
PROVIDENCE     MOSUNNY   82  69  64 S15G25    29.48F                  
HARTFORD       PTSUNNY   83  61  47 SW18G30   29.45R                  
ALBANY         TSTM      67  64  90 CALM      29.48F FOG              
NEW YORK CITY  PTSUNNY   83  58  42 W14G25    29.53R                  
$$

ANZ081-ANZ082-ANZ150-NHZ014-MEZ023>029-282200-
COASTAL MARINE OBSERVATIONS
  
STATION/POSITION TIME  TEMP    WIND        PRES    WAVE
                       AIR SEA DIR/SP/G            HT/PER
                 (UTC) (F)     (DEG/KT/KT) (MB)    (FT/S)
MOUNT DESERT ROC 2100   59                 1000.8F
MATINICUS ROCK   2000          140/ 22/ 24 1000.2F
PORTLAND WX BUOY 2100   66 61  150/ 12/ 14  997.9F   4/ 6
WELLS            2100   67 61  190/ 11/ 14  997.0F
ISLE OF SHOALS   2000   67     150/ 20/ 21  997.5F
JEFFREYS LEDGE   2000      63                N/A     4/ 5
CASHES LEDGE BUO 2100   68 65  140/ 10/ 12  998.5F   4/ 6
$$

.............KEY..............
   WCI - WIND CHILL
   TC  - TEMPERATURE IN CELSIUS
   VSB - VISIBILITY IN MILES
   HX  - HEAT INDEX
   FAIR- INDICATES FEW OR NO CLOUDS BELOW 12,000 FT, WITH NO 
         SIGNIFICANT WEATHER AND/OR OBSTRUCTIONS TO VISIBILITY.



Return to Home page


Western Regional Climate Center, wrcc@dri.edu